Location: D�pe
(52.6057°N, 8.1808°E)
Time: 13:50:07
(UTC+00:00)

CZ-2C R/B - Pass Details

Date: 29 October 2020
Orbit: 703 x 909 km, 98.1° (Epoch: 28 November)

Event Time Altitude Azimuth Distance (km) Brightness Sun altitude
Rises 17:36:40 0° 154° (SSE) 3,517 6.2 -14.8°
Reaches altitude 10° 17:39:07 10° 152° (SSE) 2,568 5.5 -15.2°
Maximum altitude 17:44:49 68° 71° (ENE) 943 3.2 -16.0°
Drops below altitude 10° 17:50:20 10° 349° (N) 2,483 5.8 -16.9°
Sets 17:52:40 0° 348° (NNW) 3,393 6.5 -17.2°
